When you browse on this site, cookies collect data to enhance your experience and personalize the content and advertising you see.
Visit our Privacy Policy to learn more. By continuing to use the site, you agree to this use of cookies and data.
  • In Hungary
  • List of Countries
  • For 7 days
  • Water Temperature
  • Satellite Maps
  • Weather Map
  • News
  • Weather Widgets
  • user-avatar
    Login

    Hourly Weather Sparta

    Today, 18 December, Tuesday

    Time Temperature Precipitation Wind Pressure Humidity
    00:00 +12°C° 1.2 mm 3 mps 741 mmHg 92%
    01:00 +11°C° 0 mm 3 mps 741 mmHg 93%
    02:00 +11°C° 0.7 mm 3 mps 741 mmHg 93%
    03:00 +11°C° 0.7 mm 3 mps 741 mmHg 92%
    04:00 +11°C° 0.7 mm 4 mps 740 mmHg 92%
    05:00 +11°C° 0.8 mm 3 mps 741 mmHg 91%
    06:00 +11°C° 0.8 mm 3 mps 741 mmHg 91%
    07:00 +11°C° 0 mm 3 mps 740 mmHg 90%
    08:00 +11°C° 0.7 mm 3 mps 740 mmHg 87%
    09:00 +12°C° 0.7 mm 3 mps 741 mmHg 84%
    10:00 +12°C° 0.7 mm 3 mps 741 mmHg 81%
    11:00 +13°C° 0.5 mm 3 mps 741 mmHg 80%
    12:00 +13°C° 0.5 mm 3 mps 741 mmHg 78%
    13:00 +13°C° 0 mm 3 mps 741 mmHg 80%
    14:00 +12°C° 0.5 mm 3 mps 741 mmHg 82%
    15:00 +12°C° 0.5 mm 3 mps 741 mmHg 83%
    16:00 +11°C° 0.5 mm 3 mps 742 mmHg 85%
    17:00 +11°C° 0.3 mm 3 mps 742 mmHg 86%
    18:00 +10°C° 0.3 mm 3 mps 743 mmHg 86%
    19:00 +10°C° 0.3 mm 4 mps 743 mmHg 86%
    20:00 +9°C° 0.1 mm 3 mps 744 mmHg 86%
    21:00 +9°C° 0.1 mm 3 mps 744 mmHg 86%
    22:00 +8°C° 0.1 mm 3 mps 745 mmHg 86%
    23:00 +8°C° 0 mm 3 mps 745 mmHg 85%

    Tomorrow, 19 December, Wednesday

    Time Temperature Precipitation Wind Pressure Humidity
    00:00 +8°C° 0 mm 3 mps 745 mmHg 84%
    01:00 +8°C° 0 mm 2 mps 746 mmHg 84%
    02:00 +8°C° 0 mm 2 mps 746 mmHg 84%
    03:00 +8°C° 0 mm 2 mps 746 mmHg 84%
    04:00 +8°C° 0 mm 2 mps 746 mmHg 84%
    05:00 +8°C° 0 mm 2 mps 746 mmHg 84%
    06:00 +8°C° 0 mm 2 mps 747 mmHg 83%
    07:00 +8°C° 0 mm 2 mps 747 mmHg 83%
    08:00 +8°C° 0.1 mm 2 mps 747 mmHg 79%
    09:00 +9°C° 0.1 mm 2 mps 748 mmHg 75%
    10:00 +10°C° 0.1 mm 2 mps 748 mmHg 71%
    11:00 +12°C° 0 mm 1 mps 749 mmHg 69%
    12:00 +12°C° 0 mm 1 mps 749 mmHg 67%
    13:00 +13°C° 0 mm 1 mps 749 mmHg 64%
    14:00 +12°C° 0 mm 1 mps 749 mmHg 68%
    15:00 +12°C° 0 mm 1 mps 749 mmHg 72%
    16:00 +11°C° 0 mm 1 mps 749 mmHg 76%
    17:00 +11°C° 0 mm 1 mps 749 mmHg 78%
    18:00 +10°C° 0 mm 1 mps 750 mmHg 80%
    19:00 +10°C° 0 mm 1 mps 750 mmHg 82%
    20:00 +10°C° 0 mm 1 mps 750 mmHg 83%
    21:00 +9°C° 0 mm 1 mps 750 mmHg 85%
    22:00 +9°C° 0 mm 1 mps 751 mmHg 86%
    23:00 +9°C° 0 mm 1 mps 751 mmHg 87%

    Day after tomorrow, 20 December, Thursday

    Time Temperature Precipitation Wind Pressure Humidity
    00:00 +9°C° 0 mm 1 mps 751 mmHg 88%
    01:00 +8°C° 0 mm 1 mps 751 mmHg 89%
    02:00 +8°C° 0 mm 1 mps 751 mmHg 89%
    03:00 +8°C° 0 mm 1 mps 751 mmHg 89%
    04:00 +8°C° 0 mm 1 mps 751 mmHg 89%
    05:00 +8°C° 0 mm 1 mps 751 mmHg 89%
    06:00 +8°C° 0 mm 1 mps 752 mmHg 89%
    07:00 +8°C° 0 mm 1 mps 752 mmHg 88%
    08:00 +9°C° 0 mm 1 mps 752 mmHg 82%
    09:00 +11°C° 0 mm 1 mps 752 mmHg 76%
    10:00 +12°C° 0 mm 1 mps 753 mmHg 69%
    11:00 +13°C° 0 mm 1 mps 752 mmHg 67%
    12:00 +13°C° 0 mm 1 mps 752 mmHg 64%
    13:00 +14°C° 0 mm 1 mps 751 mmHg 61%
    14:00 +13°C° 0 mm 1 mps 751 mmHg 66%
    15:00 +12°C° 0 mm 1 mps 751 mmHg 71%
    16:00 +11°C° 0 mm 1 mps 751 mmHg 76%
    17:00 +11°C° 0 mm 1 mps 752 mmHg 79%
    18:00 +10°C° 0 mm 1 mps 752 mmHg 82%
    19:00 +9°C° 0 mm 1 mps 752 mmHg 86%
    20:00 +9°C° 0 mm 1 mps 752 mmHg 86%
    21:00 +9°C° 0 mm 1 mps 752 mmHg 86%
    22:00 +9°C° 0 mm 1 mps 753 mmHg 87%
    23:00 +9°C° 0 mm 1 mps 752 mmHg 86%

    21 December, Friday

    Time Temperature Precipitation Wind Pressure Humidity
    00:00 +7°C° 0 mm 2 mps 752 mmHg 85%
    01:00 +7°C° 0 mm 2 mps 752 mmHg 84%
    02:00 +7°C° 0 mm 2 mps 752 mmHg 82%
    03:00 +7°C° 0 mm 2 mps 752 mmHg 80%
    04:00 +7°C° 0 mm 2 mps 752 mmHg 78%
    05:00 +7°C° 0 mm 2 mps 752 mmHg 77%
    06:00 +7°C° 0 mm 2 mps 752 mmHg 76%
    07:00 +7°C° 0 mm 2 mps 752 mmHg 75%
    08:00 +10°C° 0 mm 1 mps 753 mmHg 71%
    09:00 +12°C° 0 mm 1 mps 753 mmHg 67%
    10:00 +14°C° 0 mm 1 mps 753 mmHg 63%
    11:00 +15°C° 0 mm 1 mps 753 mmHg 63%
    12:00 +15°C° 0 mm 1 mps 752 mmHg 63%
    13:00 +16°C° 0 mm 2 mps 752 mmHg 63%
    14:00 +15°C° 0 mm 2 mps 752 mmHg 69%
    15:00 +14°C° 0 mm 2 mps 752 mmHg 74%
    16:00 +13°C° 0 mm 1 mps 752 mmHg 80%
    17:00 +13°C° 0 mm 1 mps 752 mmHg 83%
    18:00 +12°C° 0 mm 1 mps 752 mmHg 85%
    19:00 +11°C° 0 mm 1 mps 752 mmHg 88%
    20:00 +11°C° 0 mm 1 mps 752 mmHg 88%
    21:00 +11°C° 0 mm 1 mps 752 mmHg 88%
    22:00 +11°C° 0 mm 1 mps 752 mmHg 89%
    23:00 +11°C° 0 mm 1 mps 752 mmHg 89%

    22 December, Saturday

    Time Temperature Precipitation Wind Pressure Humidity
    00:00 +10°C° 0 mm 1 mps 752 mmHg 89%
    01:00 +10°C° 0 mm 1 mps 752 mmHg 89%
    02:00 +10°C° 0 mm 1 mps 751 mmHg 88%
    03:00 +10°C° 0 mm 1 mps 751 mmHg 88%
    04:00 +10°C° 0 mm 1 mps 751 mmHg 88%
    05:00 +10°C° 0 mm 1 mps 751 mmHg 87%
    06:00 +10°C° 0 mm 1 mps 751 mmHg 86%
    07:00 +10°C° 0 mm 1 mps 751 mmHg 86%
    08:00 +12°C° 0 mm 2 mps 752 mmHg 79%
    09:00 +13°C° 0 mm 2 mps 752 mmHg 73%
    10:00 +15°C° 0 mm 2 mps 752 mmHg 66%
    11:00 +16°C° 0 mm 2 mps 752 mmHg 63%
    12:00 +17°C° 0 mm 2 mps 751 mmHg 60%
    13:00 +17°C° 0 mm 3 mps 751 mmHg 57%
    14:00 +16°C° 0 mm 3 mps 750 mmHg 64%
    15:00 +14°C° 0 mm 3 mps 750 mmHg 70%
    16:00 +13°C° 0 mm 3 mps 750 mmHg 76%
    17:00 +12°C° 0 mm 3 mps 750 mmHg 79%
    18:00 +11°C° 0 mm 3 mps 750 mmHg 83%
    19:00 +10°C° 0 mm 3 mps 750 mmHg 86%
    20:00 +10°C° 0 mm 3 mps 750 mmHg 86%
    21:00 +10°C° 0 mm 3 mps 750 mmHg 86%
    22:00 +10°C° 0 mm 3 mps 750 mmHg 86%
    23:00 +9°C° 0 mm 3 mps 750 mmHg 84%

    23 December, Sunday

    Time Temperature Precipitation Wind Pressure Humidity
    00:00 +9°C° 0 mm 3 mps 750 mmHg 82%
    01:00 +9°C° 0 mm 3 mps 749 mmHg 81%
    02:00 +9°C° 0 mm 3 mps 749 mmHg 81%
    03:00 +9°C° 0 mm 3 mps 749 mmHg 80%
    04:00 +9°C° 0 mm 3 mps 749 mmHg 80%
    05:00 +9°C° 0 mm 3 mps 749 mmHg 80%
    06:00 +9°C° 0 mm 3 mps 749 mmHg 81%
    07:00 +9°C° 0 mm 3 mps 749 mmHg 81%
    08:00 +11°C° 0 mm 3 mps 750 mmHg 75%
    09:00 +14°C° 0 mm 2 mps 750 mmHg 68%
    10:00 +16°C° 0 mm 2 mps 750 mmHg 62%
    11:00 +16°C° 0 mm 2 mps 750 mmHg 61%
    12:00 +17°C° 0 mm 2 mps 750 mmHg 60%
    13:00 +18°C° 0 mm 2 mps 749 mmHg 58%
    14:00 +17°C° 0 mm 2 mps 749 mmHg 64%
    15:00 +16°C° 0 mm 2 mps 749 mmHg 71%
    16:00 +14°C° 0 mm 2 mps 749 mmHg 77%
    17:00 +14°C° 0 mm 2 mps 749 mmHg 80%
    18:00 +13°C° 0 mm 2 mps 750 mmHg 83%
    19:00 +12°C° 0 mm 1 mps 750 mmHg 87%
    20:00 +12°C° 0 mm 1 mps 750 mmHg 87%
    21:00 +12°C° 0 mm 1 mps 750 mmHg 87%
    22:00 +12°C° 0 mm 1 mps 751 mmHg 88%
    23:00 +12°C° 0 mm 1 mps 751 mmHg 88%
    Show more